[[[{"header":{"parameterUnit":"kt","parameterCategory":2,"dx":1,"dy":1,"la1":30.253999710083008,"la2":30.299108505249023,"lo1":-89.0895004272461,"lo2":-89.04439544677734,"nx":28,"ny":28,"refTime":"2022-10-24T21:00:00:Z","depth":0,"parameterNumber":1,"parameterNumberName":"U-component_of_WINDS"},"data":[4.2587,4.2642,4.2634,4.2694,4.2696,4.2735,4.2746,4.276,4.2768,4.2814,4.2839,4.2835,4.2839,4.2866,4.2893,4.289,4.2901,4.293,4.2921,4.2805,4.2789,4.2773,4.2758,4.2932,4.2933,4.3042,4.3043,4.3044,4.2508,4.2511,4.254,4.2561,4.2585,4.2554,4.2568,4.2591,4.2626,4.2636,4.2659,4.2699,4.2728,4.2722,4.2748,4.2774,4.276,4.2782,4.2779,4.278,4.2657,4.2642,4.2794,4.2794,4.2794,4.2794,4.2794,4.2794,4.2362,4.2396,4.2403,4.2433,4.2441,4.2455,4.2485,4.2479,4.2506,4.2531,4.2514,4.2553,4.2561,4.2586,4.2592,4.2622,4.2595,4.2616,4.2621,4.2626,4.2634,4.2479,4.2626,4.2626,4.2625,4.2625,4.2625,0,4.2252,4.2242,4.2267,4.2291,4.2312,4.2328,4.2341,4.236,4.2332,4.2355,4.2388,4.2405,4.2439,4.2468,4.2489,4.249,4.2457,4.2452,4.2466,4.2475,4.2482,4.2479,4.2278,4.2447,4.2445,4.2444,4.2443,4.2443,4.2104,4.2143,4.2144,4.2163,4.2167,4.2198,4.2214,4.2186,4.2205,4.2216,4.2247,4.2276,4.2297,4.2351,4.234,4.2364,4.2348,4.2414,4.2351,4.236,4.2349,4.2346,4.235,4.2426,4.2428,4.243,4.2431,0,4.2022,4.2003,4.206,4.2055,4.2055,4.2098,4.2094,4.2125,4.2113,4.2155,4.2163,4.2145,4.2177,4.2155,4.2186,4.2173,4.2245,4.2229,4.2244,4.2239,4.2296,4.2291,4.2484,4.2508,4.2328,4.233,4.2331,0,4.1887,4.1939,4.1908,4.1942,4.1999,4.1968,4.2026,4.2021,4.2024,4.2056,4.2015,4.2046,4.2012,4.2041,4.2022,4.2077,4.2082,4.2076,4.207,4.2079,4.208,4.2086,4.2077,4.2055,4.2054,4.2053,4.2052,0,4.1759,4.1802,4.1857,4.1863,4.1861,4.1888,4.1888,4.189,4.1906,4.1922,4.1932,4.1953,4.1965,4.1982,4.1958,4.1916,4.2024,4.1961,4.2017,4.2018,4.204,4.2038,4.2217,4.2051,4.2051,4.205,4.205,0,4.1646,4.1662,4.1744,4.1741,4.1753,4.1789,4.1807,4.1832,4.1838,4.1828,4.184,4.1808,4.1853,4.1793,4.1854,4.1807,4.1821,4.1818,4.1822,4.1823,4.1755,4.1858,4.2031,4.2048,4.1827,4.1826,4.1824,0,4.1505,4.1581,4.1553,4.1631,4.1662,4.1612,4.1652,4.1656,4.1646,4.1671,4.166,4.1688,4.1638,4.1643,4.1677,4.1666,4.1728,4.1657,4.1694,4.1696,4.1694,4.1853,4.1884,4.1996,4.18,4.1802,4.1804,0,4.1392,4.1387,4.1402,4.1408,4.1407,4.1433,4.1478,4.1498,4.1517,4.1526,4.1563,4.1602,4.1566,4.1575,4.1549,4.1586,4.1685,4.1541,4.1541,4.1568,4.1785,4.1814,4.1833,4.1661,4.1663,4.1666,4.1785,0,4.1227,4.126,4.1301,4.1312,4.1328,4.1374,4.1346,4.1367,4.1341,4.1327,4.138,4.1376,4.1395,4.141,4.1384,4.1474,4.1455,4.1415,4.1352,4.1457,4.1496,4.1512,4.1298,4.1296,4.1294,4.1293,0,0,4.1096,4.1143,4.1108,4.1148,4.1159,4.1103,4.1155,4.1159,4.1167,4.1176,4.1142,4.1195,4.1192,4.1259,4.129,4.1298,4.1311,4.1274,4.1408,4.1421,4.1433,4.1474,4.1491,4.129,4.1289,4.1288,4.1288,0,4.1029,4.1027,4.1077,4.108,4.1081,4.1063,4.1076,4.1067,4.106,4.111,4.1062,4.109,4.1132,4.1136,4.1143,4.1267,4.1228,4.1275,4.135,4.1392,4.1407,4.142,4.1465,4.1481,4.1284,4.1284,4.1284,0,4.0912,4.0906,4.0926,4.0946,4.0946,4.0978,4.0906,4.0943,4.0966,4.0901,4.0951,4.0944,4.0946,4.1012,4.104,4.1009,4.1154,4.1102,4.1112,4.1114,4.1152,4.1171,4.1187,4.0972,4.0971,4.097,0,0,4.0858,4.0887,4.0868,4.0929,4.0932,4.0905,4.0919,4.0893,4.0895,4.0896,4.0885,4.0889,4.0913,4.0929,4.095,4.1027,4.1024,4.1065,4.108,4.1092,4.11,4.1142,4.116,4.0966,4.0966,4.0966,0,0,4.0831,4.0811,4.0784,4.085,4.0854,4.0838,4.0877,4.0843,4.0858,4.0849,4.0807,4.0805,4.0866,4.0861,4.0816,4.0927,4.0866,4.0876,4.0928,4.0946,4.0961,4.096,4.0739,0,0,0,0,0,4.0745,4.0814,4.0789,4.0796,4.0818,4.0853,4.0855,4.0821,4.0779,4.0811,4.0797,4.0754,4.0828,4.0787,4.0794,4.0844,4.0919,4.0928,4.0936,4.102,4.104,4.1056,0,0,0,0,0,0,4.0748,4.0756,4.0787,4.0775,4.078,4.085,4.0771,4.0764,4.0775,4.0766,4.0758,4.0753,4.0725,4.0781,4.0788,4.0836,4.0737,4.0923,4.093,4.0936,4.1027,4.1043,4.1056,0,0,0,0,0,4.0749,4.0756,4.0801,4.0774,4.0778,4.075,4.0768,4.0761,4.077,4.0746,4.074,4.0743,4.0728,4.0731,4.0785,4.0834,4.0732,4.0734,4.0927,4.0933,4.0938,4.1035,0,0,0,0,0,0,4.0751,4.075,4.0801,4.0801,4.0745,4.0745,4.0744,4.076,4.0748,4.0743,4.0729,4.0722,4.073,4.0732,4.0735,4.0835,4.0727,4.073,4.0732,4.0931,4.0936,4.094,0,0,0,0,0,0,4.0746,4.0751,4.0801,4.0766,4.0761,4.0741,4.074,4.078,4.0749,4.0731,4.0725,4.0726,4.0725,4.0734,4.0736,4.0799,4.0724,4.0727,4.0729,4.073,4.0935,4.0938,0,0,0,0,0,0,4.0747,4.0751,4.0765,4.0762,4.0758,4.0756,4.0776,4.08,4.0719,4.0732,4.0711,4.0707,4.0728,4.0729,4.0736,4.0799,4.0799,4.0724,4.0726,4.0727,4.0728,0,0,0,0,0,0,0,4.0748,4.0732,4.0801,4.0759,4.0755,4.0801,4.0801,4.0801,4.0718,4.0715,4.0711,4.0708,4.0709,4.0712,4.0715,4.08,0,0,4.0724,4.0725,0,0,0,0,0,0,0,0,4.073,4.0731,4.0801,4.0801,4.0801,4.0801,4.0801,4.0801,4.0717,4.0715,4.0712,4.071,4.0709,4.0712,4.0714,0,0,0,0,0,0,0,0,0,0,0,0,0,0,0,4.0801,4.0801,0,4.0801,4.0801,4.0801,4.0717,4.0715,4.0713,4.0711,4.071,4.0712,4.0714,0,0,0,0,0,0,0,0,0,0,0,0,0,0,0,0,0,0,0,0,0,0,0,0,0,0,0,0,0,0,0,0,0,0,0,0,0,0,0,0,0,0,0,0,0,0,0,0,0,0,0,0,0,0,0,0,0,0,0,0,0,0,0,0,0,0,0,0,0]}],[{"header":{"parameterUnit":"kt","parameterCategory":2,"dx":1,"dy":1,"la1":30.253999710083008,"la2":30.299108505249023,"lo1":-89.0895004272461,"lo2":-89.04439544677734,"nx":28,"ny":28,"refTime":"2022-10-24T21:00:00:Z","depth":0,"parameterNumber":2,"parameterNumberName":"V-component_of_WINDS"},"data":[-12.5052,-12.5376,-12.5442,-12.584,-12.5966,-12.6249,-12.637,-12.6533,-12.6679,-12.702,-12.7228,-12.7323,-12.749,-12.775,-12.7975,-12.8012,-12.8103,-12.8172,-12.8203,-12.7841,-12.7795,-12.7752,-12.7681,-12.819,-12.8191,-12.8569,-12.8573,-12.8575,-12.4784,-12.4913,-12.5143,-12.5409,-12.5607,-12.5581,-12.5789,-12.5955,-12.6207,-12.6387,-12.6595,-12.6899,-12.7146,-12.7292,-12.754,-12.7689,-12.769,-12.7752,-12.7742,-12.7769,-12.7385,-12.7309,-12.7747,-12.7747,-12.7747,-12.7747,-12.7747,-12.7747,-12.4314,-12.4505,-12.4705,-12.4955,-12.5106,-12.5283,-12.5476,-12.559,-12.5813,-12.6082,-12.6112,-12.6397,-12.6587,-12.6914,-12.7038,-12.726,-12.7202,-12.7288,-12.7311,-12.7332,-12.7349,-12.6798,-12.7304,-12.7303,-12.7302,-12.7301,-12.73,0,-12.399,-12.4032,-12.4256,-12.4501,-12.4686,-12.4881,-12.5069,-12.5189,-12.5294,-12.5474,-12.5738,-12.5901,-12.6219,-12.6473,-12.6717,-12.6828,-12.6817,-12.6821,-12.6881,-12.6873,-12.6835,-12.6861,-12.6234,-12.6806,-12.6802,-12.6799,-12.6797,-12.6795,-12.3522,-12.3736,-12.3975,-12.4124,-12.4243,-12.4481,-12.4635,-12.4713,-12.4873,-12.5113,-12.5276,-12.5531,-12.574,-12.6148,-12.6274,-12.6511,-12.6507,-12.6719,-12.6542,-12.6526,-12.6514,-12.6501,-12.6524,-12.6752,-12.6758,-12.6762,-12.6766,0,-12.3253,-12.3358,-12.371,-12.3924,-12.3984,-12.4204,-12.4386,-12.4578,-12.4666,-12.4942,-12.501,-12.5148,-12.5403,-12.5496,-12.5804,-12.5845,-12.6205,-12.6194,-12.6141,-12.6145,-12.6346,-12.6327,-12.6978,-12.7068,-12.6539,-12.6544,-12.6548,0,-12.2896,-12.3173,-12.3313,-12.3511,-12.3822,-12.3893,-12.4197,-12.4303,-12.4469,-12.4686,-12.4689,-12.4892,-12.4978,-12.5194,-12.5254,-12.5564,-12.5621,-12.567,-12.5683,-12.5672,-12.5667,-12.5757,-12.5733,-12.57,-12.5697,-12.5694,-12.5691,0,-12.2465,-12.2863,-12.3186,-12.3293,-12.3548,-12.3698,-12.381,-12.3995,-12.4145,-12.4352,-12.445,-12.4685,-12.4814,-12.4995,-12.507,-12.4947,-12.5451,-12.5296,-12.5501,-12.55,-12.5609,-12.5602,-12.6155,-12.5687,-12.5686,-12.5685,-12.5684,0,-12.2192,-12.2405,-12.2857,-12.3069,-12.317,-12.3381,-12.3621,-12.3823,-12.4018,-12.407,-12.4233,-12.4245,-12.4523,-12.4364,-12.4747,-12.4566,-12.4693,-12.4765,-12.4781,-12.4813,-12.4633,-12.4936,-12.5451,-12.551,-12.484,-12.4834,-12.4827,0,-12.1672,-12.2155,-12.222,-12.2646,-12.2882,-12.2872,-12.3107,-12.3279,-12.3369,-12.358,-12.3676,-12.3915,-12.3816,-12.3903,-12.4081,-12.419,-12.4424,-12.416,-12.4461,-12.4471,-12.4414,-12.4889,-12.4944,-12.5328,-12.4739,-12.4748,-12.4755,0,-12.1282,-12.159,-12.1662,-12.1788,-12.2029,-12.2225,-12.2495,-12.2749,-12.2886,-12.3078,-12.3306,-12.3641,-12.3581,-12.3725,-12.3758,-12.3938,-12.4267,-12.3848,-12.3854,-12.3923,-12.47,-12.4752,-12.4816,-12.4249,-12.426,-12.4269,-12.4684,0,-12.0851,-12.1105,-12.1302,-12.1577,-12.1743,-12.2014,-12.2115,-12.2276,-12.2293,-12.2381,-12.2715,-12.2878,-12.3133,-12.3228,-12.3245,-12.3627,-12.3578,-12.351,-12.3363,-12.3672,-12.3812,-12.3868,-12.3147,-12.3143,-12.314,-12.3137,0,0,-12.0328,-12.0694,-12.0756,-12.1021,-12.1166,-12.115,-12.143,-12.1568,-12.1845,-12.1945,-12.1863,-12.236,-12.2495,-12.2891,-12.2995,-12.3097,-12.3174,-12.3061,-12.3523,-12.3566,-12.3606,-12.3753,-12.381,-12.3132,-12.3131,-12.3129,-12.3128,0,-12.0193,-12.0336,-12.0613,-12.076,-12.0978,-12.1058,-12.1124,-12.1337,-12.1406,-12.1734,-12.1714,-12.1925,-12.2318,-12.2466,-12.2592,-12.3016,-12.2988,-12.3085,-12.3283,-12.3488,-12.3535,-12.3576,-12.373,-12.3784,-12.3121,-12.3121,-12.3121,0,-11.9828,-11.9987,-12.0131,-12.0458,-12.06,-12.0841,-12.0713,-12.0972,-12.1151,-12.1116,-12.1441,-12.1545,-12.1748,-12.2108,-12.2272,-12.2202,-12.2814,-12.2637,-12.2659,-12.268,-12.2883,-12.2939,-12.2989,-12.2331,-12.2327,-12.2325,0,0,-11.9696,-11.9932,-12.0124,-12.0436,-12.0527,-12.0649,-12.0786,-12.0818,-12.1004,-12.1078,-12.121,-12.139,-12.1619,-12.1769,-12.1989,-12.2369,-12.2417,-12.2535,-12.2573,-12.2603,-12.2639,-12.285,-12.2906,-12.2313,-12.2312,-12.2312,0,0,-11.9633,-11.9869,-11.9855,-12.0229,-12.0408,-12.0616,-12.0801,-12.0788,-12.0996,-12.0976,-12.1038,-12.1089,-12.1426,-12.1527,-12.1358,-12.1938,-12.179,-12.1832,-12.186,-12.1908,-12.1945,-12.1914,-12.1246,0,0,0,0,0,-11.9546,-11.984,-11.9825,-11.9902,-12.0314,-12.0624,-12.0677,-12.0738,-12.0633,-12.0779,-12.0887,-12.0848,-12.1449,-12.1301,-12.1375,-12.1564,-12.216,-12.2187,-12.2213,-12.2338,-12.2388,-12.2429,0,0,0,0,0,0,-11.9577,-11.9673,-11.9817,-12.0036,-12.0129,-12.0614,-12.0451,-12.0475,-12.0619,-12.0607,-12.0828,-12.0855,-12.0909,-12.1266,-12.1333,-12.1511,-12.1224,-12.2171,-12.2194,-12.2214,-12.2355,-12.2396,-12.243,0,0,0,0,0,-11.9602,-11.9679,-12.0323,-12.0033,-12.0113,-12.0264,-12.044,-12.0459,-12.0571,-12.0739,-12.0764,-12.0604,-12.0913,-12.0973,-12.1306,-12.1479,-12.1179,-12.1203,-12.2186,-12.2204,-12.222,-12.2375,0,0,0,0,0,0,-11.9621,-11.9698,-12.034,-12.0367,-11.9926,-12.0238,-12.0289,-12.0445,-12.0695,-12.0723,-12.0516,-12.0504,-12.0919,-12.0964,-12.1011,-12.1465,-12.1141,-12.1167,-12.1182,-12.2199,-12.2214,-12.2226,0,0,0,0,0,0,-11.9657,-11.9721,-12.0354,-12.0217,-12.0228,-12.0214,-12.026,-12.055,-12.0698,-12.0458,-12.0456,-12.0508,-12.0848,-12.096,-12.0996,-12.1446,-12.1113,-12.1137,-12.1154,-12.1164,-12.2211,-12.2222,0,0,0,0,0,0,-11.9685,-11.974,-12.021,-12.0219,-12.0229,-12.0533,-12.0471,-12.0888,-12.0584,-12.0447,-12.0558,-12.0546,-12.0845,-12.0882,-12.0986,-12.1421,-12.144,-12.1114,-12.113,-12.1142,-12.1149,0,0,0,0,0,0,0,-11.9708,-11.9328,-12.0182,-12.0221,-12.0229,-12.0615,-12.0622,-12.0629,-12.0581,-12.0571,-12.056,-12.0551,-12.0977,-12.1003,-12.103,-12.1401,0,0,-12.1112,-12.1123,0,0,0,0,0,0,0,0,-11.9306,-11.9322,-12.0183,-12.0189,-12.0194,-12.0616,-12.0622,-12.0628,-12.0579,-12.0571,-12.0562,-12.0555,-12.0984,-12.1005,-12.1027,0,0,0,0,0,0,0,0,0,0,0,0,0,0,0,-12.0184,-12.0188,0,-12.0617,-12.0621,-12.0626,-12.0578,-12.0571,-12.0564,-12.0558,-12.099,-12.1007,-12.1025,0,0,0,0,0,0,0,0,0,0,0,0,0,0,0,0,0,0,0,0,0,0,0,0,0,0,0,0,0,0,0,0,0,0,0,0,0,0,0,0,0,0,0,0,0,0,0,0,0,0,0,0,0,0,0,0,0,0,0,0,0,0,0,0,0,0,0,0,0]}]]]